Location: Fort Wayne
(41.1310°N, 85.1290°W)
Time: 20:55:13
(UTC-04:00)

Amateur Radio Satellites - All Passes

Search period start: 29 July 2014 20:25
Search period end: 30 July 2014 20:25
Location: Fort Wayne, 41.1310°N, 85.1290°W

Satellite Date Start Highest point End Downlink Frequencies (MHz)
Time Altitude Azimuth
JAS-2 29 Jul 20:43:38 20:49:19 22° 269° (W) 20:54:48 435.800 - 435.900 CW/SSB, 435.910 FM
MaSat-1 29 Jul 20:53:05 20:54:50 12° 98° (E) 20:56:39 437.345 MHz
STRAND 1 29 Jul 21:14:52 21:19:40 41° 290° (WNW) 21:24:24 ?
SO-50 29 Jul 21:23:25 21:27:45 34° 49° (NE) 21:32:07 436.795 FM
HO-68 29 Jul 21:23:35 21:30:34 59° 68° (ENE) 21:37:34 435.675 MHz FM
Oscar 11 29 Jul 21:24:04 21:26:14 14° 63° (ENE) 21:28:25 145.825 FM, Beacon 2401.500 USB
RS-15 29 Jul 21:59:02 22:09:22 43° 42° (NE) 22:19:57 29.354 - 29.394 USB, Beacon 29.352 USB
UKube-1 29 Jul 22:13:13 22:17:36 85° 256° (WSW) 22:22:00 145.840 MHz, 145.915 MHz
MaSat-1 29 Jul 22:27:16 22:31:20 61° 299° (WNW) 22:36:04 437.345 MHz
Oscar 11 29 Jul 22:57:44 23:01:57 56° 260° (W) 23:06:12 145.825 FM, Beacon 2401.500 USB
SO-50 29 Jul 23:04:04 23:08:16 31° 246° (WSW) 23:12:30 436.795 FM
HO-68 29 Jul 23:12:48 23:18:38 27° 266° (W) 23:24:30 435.675 MHz FM
UOSAT-12 29 Jul 23:19:52 23:24:14 35° 49° (NE) 23:28:32 437.025 FM, 437.400 FM
FUNcube-1 29 Jul 23:21:26 23:25:46 86° 257° (WSW) 23:30:01 145.950 - 145.970 MHz USB
ISS 29 Jul 23:40:33 23:43:32 31° 136° (SE) 23:46:33 145.800 FM
RS-15 30 Jul 00:11:27 00:22:16 64° 245° (WSW) 00:33:31 29.354 - 29.394 USB, Beacon 29.352 USB
Sapphire 30 Jul 00:15:57 00:18:57 15° 104° (ESE) 00:21:57 437.095 MHz 1200 baud AX-25 AFSK
PCSat 30 Jul 00:47:11 00:51:55 32° 110° (ESE) 00:56:40 145.825 MHz
UOSAT-12 30 Jul 01:00:13 01:04:16 29° 247° (WSW) 01:08:16 437.025 FM, 437.400 FM
ISS 30 Jul 01:17:08 01:20:13 34° 333° (NNW) 01:23:20 145.800 FM
Sapphire 30 Jul 01:56:19 02:01:42 73° 300° (WNW) 02:07:09 437.095 MHz 1200 baud AX-25 AFSK
AO-40 30 Jul 02:09:46 04:10:51 28° 209° (SSW) 08:19:56 Beacon 2401.320
Oscar 19 30 Jul 02:19:57 02:23:50 21° 93° (E) 02:27:41 437.125 CW, 437.150 USB
RS-15 30 Jul 02:28:59 02:32:19 12° 265° (W) 02:35:42 29.354 - 29.394 USB, Beacon 29.352 USB
PCSat 30 Jul 02:30:14 02:35:14 37° 307° (NW) 02:40:16 145.825 MHz
AO-Echo 30 Jul 02:30:37 02:32:04 11° 88° (E) 02:33:29 ?
Oscar 16 30 Jul 02:47:48 02:52:39 40° 98° (E) 02:57:30 437.025 USB, Beacon 2401.1428
ISS 30 Jul 02:55:44 02:57:42 15° 353° (N) 02:59:40 145.800 FM
Oscar 10/S400 30 Jul 02:59:49 03:46:29 61° 196° (SSW) 12:20:23 145.825 - 145.975 CW/USB, Beacon 145.810 USB
ITAMSAT 1 30 Jul 03:11:07 03:15:35 29° 96° (E) 03:20:00 435.822 SSB
Uribyol 2 30 Jul 03:29:57 03:34:54 46° 99° (E) 03:39:50 436.500 FM
AO-27 30 Jul 03:30:16 03:35:14 44° 99° (E) 03:40:09 436.795 MHz FM
TMSAT-1 30 Jul 03:35:07 03:38:00 15° 90° (E) 03:40:53 436.925 FM
Sapphire 30 Jul 03:43:24 03:46:07 14° 321° (NW) 03:48:52 437.095 MHz 1200 baud AX-25 AFSK
JAS-1B 30 Jul 03:46:05 03:54:57 47° 95° (E) 04:02:30 435.800 - 435.900 CW/SSB
Oscar 19 30 Jul 03:58:27 04:03:23 47° 289° (WNW) 04:08:19 437.125 CW, 437.150 USB
Gurwin Techsat 1B 30 Jul 03:58:43 04:03:32 34° 97° (E) 04:08:20 435.225 FM
AO-Echo 30 Jul 04:06:24 04:11:29 79° 285° (WNW) 04:16:21 ?
OPAL 30 Jul 04:26:42 04:31:30 55° 70° (ENE) 04:36:21 ?
Oscar 16 30 Jul 04:27:37 04:31:47 25° 295° (WNW) 04:35:57 437.025 USB, Beacon 2401.1428
ISS 30 Jul 04:33:08 04:35:26 17° 13° (NNE) 04:37:43 145.800 FM
ITAMSAT 1 30 Jul 04:50:26 04:55:05 34° 292° (WNW) 04:59:41 435.822 SSB
Uribyol 2 30 Jul 05:10:09 05:14:04 22° 296° (WNW) 05:17:59 436.500 FM
AO-27 30 Jul 05:10:26 05:14:27 23° 296° (WNW) 05:18:27 436.795 MHz FM
TMSAT-1 30 Jul 05:13:09 05:18:25 68° 286° (WNW) 05:23:39 436.925 FM
JAS-1B 30 Jul 05:36:38 05:45:18 44° 297° (WNW) 05:52:51 435.800 - 435.900 CW/SSB
AO-7 30 Jul 05:38:05 05:46:02 47° 100° (E) 05:53:53 29.400 - 29.500 MHz
Gurwin Techsat 1B 30 Jul 05:38:49 05:43:24 30° 293° (WNW) 05:47:58 435.225 FM
KITSAT 1 30 Jul 05:43:24 05:49:34 25° 104° (ESE) 05:55:44 435.175 FM
Uosat F 30 Jul 06:04:14 06:09:16 84° 104° (ESE) 06:14:16 435.120 FM
OPAL 30 Jul 06:07:36 06:10:43 17° 266° (W) 06:13:52 ?
ISS 30 Jul 06:09:23 06:12:42 56° 32° (NNE) 06:16:01 145.800 FM
MaSat-1 30 Jul 06:45:36 06:50:31 36° 56° (NE) 06:55:11 437.345 MHz
STRAND 1 30 Jul 06:52:01 06:56:37 34° 68° (ENE) 07:01:13 ?
PANSAT 30 Jul 07:04:44 07:06:25 13° 181° (S) 07:08:07 not established
AO-7 30 Jul 07:31:04 07:38:41 41° 299° (WNW) 07:46:14 29.400 - 29.500 MHz
JAS-1B 30 Jul 07:31:33 07:33:06 11° 320° (NW) 07:34:37 435.800 - 435.900 CW/SSB
KITSAT 1 30 Jul 07:36:06 07:44:11 73° 303° (WNW) 07:52:19 435.175 FM
Hamsat 30 Jul 07:40:56 07:45:16 76° 102° (ESE) 07:49:36 145.90 MHz
Uosat F 30 Jul 07:45:18 07:47:20 13° 301° (WNW) 07:49:22 435.120 FM
ISS 30 Jul 07:46:51 07:49:08 17° 228° (SW) 07:51:24 145.800 FM
JAS-2 30 Jul 07:52:08 07:58:00 64° 101° (E) 08:03:17 435.800 - 435.900 CW/SSB, 435.910 FM
Saudisat 1A 30 Jul 08:17:41 08:22:05 76° 121° (ESE) 08:26:31 436.775 MHz
MaSat-1 30 Jul 08:23:09 08:27:44 31° 255° (WSW) 08:32:04 437.345 MHz
STRAND 1 30 Jul 08:31:23 08:35:48 29° 264° (W) 08:40:15 ?
SO-67 30 Jul 08:51:18 08:54:47 79° 102° (ESE) 08:58:15 435.3500 MHz FM
Sapphire 30 Jul 09:02:18 09:05:38 16° 41° (NE) 09:08:57 437.095 MHz 1200 baud AX-25 AFSK
Hamsat 30 Jul 09:19:44 09:20:37 11° 298° (WNW) 09:21:29 145.90 MHz
PCSat 30 Jul 09:34:49 09:39:28 28° 49° (NE) 09:44:05 145.825 MHz
KITSAT 1 30 Jul 09:35:11 09:41:05 21° 326° (NNW) 09:47:01 435.175 FM
JAS-2 30 Jul 09:38:33 09:42:24 18° 302° (WNW) 09:46:01 435.800 - 435.900 CW/SSB, 435.910 FM
Saudisat 1A 30 Jul 09:59:29 10:02:12 16° 320° (NW) 10:04:56 436.775 MHz
UKube-1 30 Jul 10:02:54 10:05:37 16° 93° (E) 10:08:20 145.840 MHz, 145.915 MHz
HO-68 30 Jul 10:38:42 10:45:47 61° 102° (ESE) 10:52:48 435.675 MHz FM
Sapphire 30 Jul 10:44:24 10:49:51 88° 61° (ENE) 10:55:16 437.095 MHz 1200 baud AX-25 AFSK
Oscar 11 30 Jul 10:45:48 10:49:26 25° 95° (E) 10:53:03 145.825 FM, Beacon 2401.500 USB
FUNcube-1 30 Jul 11:11:38 11:14:26 17° 93° (E) 11:17:16 145.950 - 145.970 MHz USB
PCSat 30 Jul 11:17:54 11:23:04 45° 248° (WSW) 11:28:11 145.825 MHz
UKube-1 30 Jul 11:37:54 11:42:03 44° 289° (WNW) 11:46:10 145.840 MHz, 145.915 MHz
KITSAT 1 30 Jul 11:38:55 11:40:24 11° 357° (N) 11:41:53 435.175 FM
Oscar 11 30 Jul 12:21:52 12:25:34 28° 291° (WNW) 12:29:16 145.825 FM, Beacon 2401.500 USB
RS-15 30 Jul 12:26:41 12:34:05 21° 100° (E) 12:41:22 29.354 - 29.394 USB, Beacon 29.352 USB
HO-68 30 Jul 12:27:13 12:33:00 28° 301° (WNW) 12:38:46 435.675 MHz FM
Sapphire 30 Jul 12:30:32 12:32:27 12° 258° (WSW) 12:34:23 437.095 MHz 1200 baud AX-25 AFSK
JAS-1B 30 Jul 12:46:52 12:48:52 11° 41° (NE) 12:50:52 435.800 - 435.900 CW/SSB
FUNcube-1 30 Jul 12:47:07 12:50:59 38° 288° (WNW) 12:54:53 145.950 - 145.970 MHz USB
SO-50 30 Jul 13:18:24 13:22:51 89° 122° (ESE) 13:27:26 436.795 FM
KITSAT 1 30 Jul 13:34:56 13:40:01 17° 28° (NNE) 13:45:05 435.175 FM
Oscar 19 30 Jul 13:36:45 13:41:10 30° 67° (ENE) 13:45:36 437.125 CW, 437.150 USB
AO-Echo 30 Jul 13:42:16 13:45:44 18° 62° (ENE) 13:49:11 ?
Oscar 16 30 Jul 14:04:41 14:09:41 58° 72° (ENE) 14:14:44 437.025 USB, Beacon 2401.1428
JAS-1B 30 Jul 14:28:15 14:36:37 43° 62° (ENE) 14:45:38 435.800 - 435.900 CW/SSB
ITAMSAT 1 30 Jul 14:28:56 14:33:51 44° 70° (ENE) 14:38:46 435.822 SSB
RS-15 30 Jul 14:33:39 14:44:49 87° 120° (ESE) 14:55:48 29.354 - 29.394 USB, Beacon 29.352 USB
Uribyol 2 30 Jul 14:47:41 14:52:51 70° 74° (ENE) 14:58:01 436.500 FM
AO-27 30 Jul 14:48:16 14:53:26 68° 73° (ENE) 14:58:38 436.795 MHz FM
AO-7 30 Jul 14:49:36 14:53:41 15° 46° (NE) 14:57:45 29.400 - 29.500 MHz
TMSAT-1 30 Jul 14:55:25 14:59:36 24° 65° (ENE) 15:03:47 436.925 FM
SO-50 30 Jul 15:01:35 15:04:05 15° 322° (NW) 15:06:38 436.795 FM
Saudisat 1A 30 Jul 15:08:09 15:08:25 10° 34° (NE) 15:08:40 436.775 MHz
UOSAT-12 30 Jul 15:10:27 15:15:02 87° 122° (ESE) 15:19:45 437.025 FM, 437.400 FM
Oscar 19 30 Jul 15:15:53 15:20:25 32° 264° (W) 15:25:00 437.125 CW, 437.150 USB
AO-Echo 30 Jul 15:18:42 15:23:57 64° 259° (W) 15:29:15 ?
Gurwin Techsat 1B 30 Jul 15:19:39 15:24:48 54° 72° (ENE) 15:29:59 435.225 FM
KITSAT 1 30 Jul 15:29:30 15:37:27 56° 53° (NE) 15:45:19 435.175 FM
Uosat F 30 Jul 15:41:31 15:44:14 15° 60° (ENE) 15:46:59 435.120 FM
Oscar 16 30 Jul 15:46:14 15:49:25 17° 269° (W) 15:52:37 437.025 USB, Beacon 2401.1428
ITAMSAT 1 30 Jul 16:09:27 16:13:30 23° 266° (W) 16:17:35 435.822 SSB
JAS-1B 30 Jul 16:18:05 16:26:44 54° 263° (W) 16:36:21 435.800 - 435.900 CW/SSB
Uribyol 2 30 Jul 16:30:10 16:32:49 14° 270° (W) 16:35:27 436.500 FM
AO-27 30 Jul 16:30:37 16:33:25 15° 270° (W) 16:36:14 436.795 MHz FM
TMSAT-1 30 Jul 16:34:12 16:39:14 44° 261° (W) 16:44:18 436.925 FM
AO-7 30 Jul 16:36:38 16:44:49 62° 66° (ENE) 16:53:01 29.400 - 29.500 MHz
OPAL 30 Jul 16:38:07 16:40:47 14° 93° (E) 16:43:27 ?
Saudisat 1A 30 Jul 16:44:35 16:48:57 58° 54° (NE) 16:53:16 436.775 MHz
RS-15 30 Jul 16:49:05 16:58:38 33° 327° (NNW) 17:08:11 29.354 - 29.394 USB, Beacon 29.352 USB
UOSAT-12 30 Jul 16:53:04 16:55:52 16° 321° (NW) 16:58:40 437.025 FM, 437.400 FM
Gurwin Techsat 1B 30 Jul 17:01:23 17:05:05 19° 268° (W) 17:08:48 435.225 FM
Uosat F 30 Jul 17:17:24 17:22:25 72° 257° (WSW) 17:27:29 435.120 FM
KITSAT 1 30 Jul 17:25:26 17:32:29 35° 252° (WSW) 17:39:30 435.175 FM
JAS-2 30 Jul 18:02:30 18:09:15 35° 65° (ENE) 18:15:34 435.800 - 435.900 CW/SSB, 435.910 FM
OPAL 30 Jul 18:15:02 18:20:06 69° 289° (WNW) 18:25:12 ?
Saudisat 1A 30 Jul 18:25:37 18:28:03 15° 251° (WSW) 18:30:28 436.775 MHz
AO-7 30 Jul 18:31:01 18:38:01 30° 265° (W) 18:45:06 29.400 - 29.500 MHz
Hamsat 30 Jul 18:34:14 18:38:17 52° 74° (ENE) 18:42:22 145.90 MHz
STRAND 1 30 Jul 19:05:26 19:06:28 11° 88° (E) 19:07:29 ?
RS-15 30 Jul 19:08:21 19:15:50 20° 2° (N) 19:23:22 29.354 - 29.394 USB, Beacon 29.352 USB
SO-67 30 Jul 19:24:49 19:27:41 25° 71° (ENE) 19:30:33 435.3500 MHz FM
JAS-2 30 Jul 19:46:27 19:53:59 52° 261° (W) 20:01:04 435.800 - 435.900 CW/SSB, 435.910 FM
SO-50 30 Jul 20:10:59 20:13:25 14° 37° (NE) 20:15:51 436.795 FM
Hamsat 30 Jul 20:12:42 20:14:34 13° 270° (W) 20:16:27 145.90 MHz
